Zurück zum Katalog

STARLINK-32750

AktivKommunikationVLEO
NORAD 62572·PAYLOAD·🇺🇸 United States

Gestartet Jan 10, 2025 von Cape Canaveral Space Force Station

Loading…

Nächste Überflüge (nächste 24 Stunden)

TLE

AktuellSource: CelesTrak SupGP

Epoche: Sep 14, 2026, 14:43 UTC

1 62572C 25006U   26257.61368056  .00055553  00000+0  20125-2 0  2573
2 62572  43.0006 305.2405 0001430 274.1816 336.9364 15.27543777    16

Verfolge STARLINK-32750 in Echtzeit mit AllMySat

Download on the App Store